[[{"header":{"parameterUnit":"m.s-1","parameterCategory":1,"la1":30.2991,"la2":30.254,"lo1":-89.0895,"lo2":-89.0444,"dy":0.0017,"dx":0.0017,"nx":28,"ny":28,"refTime":"2024-07-13T03:00:00:Z","depth":0,"parameterNumber":2,"parameterNumberName":"U-component_of_WINDS"},"data":[0,0,0,0,0,0,0,0,0,0,0,0,0,0,0,0,0,0,0,0,0,0,0,0,0,0,0,0,0,0,0,0,0,0,0,0,0,0,0,0,0,0,0,0,0,0,0,0,0,0,0,0,0,0,0,0,0,0,0.9394,0.9396,0,0.9571,0.9573,0.9575,0.9627,0.9626,0.9626,0.9625,0.9811,0.9817,0.9823,0,0,0,0,0,0,0,0,0,0,0,0,0,0.9105,0.911,0.9393,0.9396,0.9398,0.957,0.9573,0.9575,0.9628,0.9626,0.9625,0.9624,0.981,0.9816,0.9823,0,0,0,0,0,0,0,0,0,0,0,0,0,0.9251,0.9112,0.9393,0.9445,0.9451,0.957,0.9573,0.9576,0.9628,0.9626,0.9625,0.9624,0.9807,0.9816,0.9824,0.9906,0,0,0.9851,0.9855,0,0,0,0,0,0,0,0,0.9243,0.9262,0.9435,0.9441,0.9449,0.9575,0.954,0.9687,0.9628,0.9561,0.9625,0.9623,0.9734,0.9749,0.9786,0.9915,0.9923,0.9852,0.9857,0.9861,0.9863,0,0,0,0,0,0,0,0.9233,0.9254,0.9464,0.9437,0.9446,0.946,0.948,0.9568,0.9653,0.9567,0.9571,0.9591,0.9738,0.9777,0.979,0.9926,0.9852,0.9859,0.9865,0.9868,1.0131,1.0133,0,0,0,0,0,0,0.9213,0.9246,0.9458,0.9469,0.934,0.9467,0.9488,0.9536,0.9653,0.9669,0.9592,0.9593,0.9763,0.978,0.9797,0.99,0.9861,0.9869,0.9874,1.013,1.0132,1.0133,0,0,0,0,0,0,0.9207,0.9231,0.9451,0.9359,0.9388,0.9473,0.9527,0.954,0.9579,0.9672,0.9688,0.9616,0.9762,0.9785,0.9878,0.9908,0.9873,0.9881,1.0127,1.013,1.0133,1.0107,0,0,0,0,0,0,0.9198,0.9229,0.926,0.9359,0.9392,0.9528,0.9528,0.9545,0.9594,0.9596,0.9698,0.9714,0.9763,0.9865,0.9887,0.9919,0.9888,1.0125,1.0129,1.0132,1.0106,1.0109,1.0111,0,0,0,0,0,0.9188,0.9247,0.9261,0.9287,0.9433,0.9529,0.9549,0.9602,0.9596,0.9628,0.9687,0.971,0.99,0.9874,0.9899,0.9934,1.0124,1.0128,1.0131,1.0105,1.0108,1.0111,0,0,0,0,0,0,0.9152,0.9261,0.9278,0.9371,0.944,0.9538,0.9581,0.9604,0.9679,0.9678,0.9744,0.9766,0.9855,0.9904,0.9873,1.002,1.0013,1.0022,0.9984,0.9988,0.9991,0.9977,0.9895,0,0,0,0,0,0.9154,0.9222,0.9314,0.9387,0.9421,0.9495,0.9539,0.9574,0.9649,0.968,0.9746,0.9819,0.9895,0.9945,1.002,1.0113,1.0136,1.015,1.0152,1.0154,1.0161,1.0214,1.0221,1.0146,1.0146,1.0146,0,0,0.916,0.9229,0.9268,0.9382,0.944,0.951,0.9519,0.9593,0.9646,0.9692,0.9783,0.9834,0.9921,1.0014,1.0059,1.0058,1.0187,1.0159,1.016,1.0166,1.0219,1.0226,1.0232,1.0149,1.0148,1.0148,0,0,0.9208,0.9266,0.9333,0.939,0.9477,0.9525,0.9541,0.9635,0.967,0.9763,0.9798,0.9863,0.9993,1.0053,1.01,1.0169,1.0193,1.0192,1.0206,1.0257,1.0263,1.0268,1.0293,1.0301,1.0199,1.0199,1.0199,0,0.9205,0.9311,0.9365,0.9436,0.9486,0.9528,0.9596,0.965,0.9758,0.9791,0.9789,0.9952,1.0013,1.0121,1.0137,1.0175,1.0196,1.0181,1.0257,1.0263,1.0269,1.0293,1.0302,1.0198,1.0198,1.0198,1.0198,0,0.9303,0.9376,0.942,0.952,0.9575,0.9644,0.971,0.9759,0.9789,0.9838,0.9932,1.0007,1.0098,1.0126,1.0157,1.0238,1.0235,1.0244,1.0239,1.0275,1.0298,1.0308,1.0197,1.0197,1.0198,1.0198,0,0,0.9334,0.9462,0.9477,0.9523,0.9621,0.9679,0.9751,0.9838,0.9879,0.9951,1.0014,1.0122,1.0131,1.0185,1.0223,1.0267,1.0317,1.0271,1.0274,1.0277,1.0411,1.0404,1.0414,1.0333,1.0335,1.0337,1.0404,0,0.9394,0.9522,0.9572,0.9677,0.9745,0.9786,0.9849,0.9916,0.9964,1.003,1.0083,1.0158,1.0164,1.0196,1.0242,1.0301,1.0345,1.0297,1.0393,1.0396,1.037,1.0426,1.0419,1.0479,1.0413,1.0415,1.0416,0,0.9481,0.9552,0.9663,0.9752,0.9782,0.9838,0.9921,0.9983,1.0061,1.0093,1.0152,1.0187,1.0265,1.0254,1.0364,1.033,1.0372,1.0407,1.0411,1.0422,1.0408,1.0439,1.0499,1.0508,1.0432,1.043,1.0429,0,0.9491,0.9615,0.9697,0.9735,0.9842,0.9879,0.9926,1.0002,1.0051,1.0125,1.0157,1.0239,1.0284,1.0348,1.0405,1.0392,1.0509,1.0503,1.0539,1.0537,1.0562,1.056,1.063,1.0589,1.0588,1.0588,1.0588,0,0.9553,0.9619,0.9703,0.9754,0.983,0.9887,0.9961,1.0011,1.0078,1.014,1.0181,1.0239,1.031,1.0378,1.0423,1.0507,1.0527,1.0555,1.0567,1.0552,1.0548,1.0581,1.0579,1.0591,1.059,1.059,1.0589,0,0.9577,0.9636,0.9729,0.9821,0.9846,0.9897,0.9977,1.0029,1.0077,1.0155,1.0177,1.0255,1.0336,1.0398,1.0505,1.0535,1.0624,1.0636,1.0597,1.0603,1.0635,1.0631,1.0728,1.0744,1.0692,1.0692,1.0693,0,0.9613,0.9665,0.9762,0.9805,0.985,0.992,0.9969,1.0028,1.0078,1.0171,1.0211,1.0294,1.0364,1.0492,1.0559,1.0641,1.0656,1.0684,1.0668,1.0651,1.0656,1.0652,1.0658,1.0686,1.0686,1.0687,1.0687,0,0.9669,0.9695,0.9764,0.9843,0.99,0.9966,1.0032,1.0066,1.0137,1.0191,1.0274,1.0328,1.0435,1.0518,1.0606,1.0656,1.0684,1.0691,1.0704,1.0689,1.0664,1.0678,1.0602,1.0689,1.0689,1.0688,1.0688,1.0688,0.9701,0.9748,0.9824,0.9899,0.9954,1.0015,1.0068,1.0122,1.0191,1.0282,1.0313,1.0398,1.0475,1.0596,1.0646,1.0714,1.0716,1.0734,1.0738,1.0742,1.0741,1.0653,1.0731,1.0731,1.0731,1.0731,1.0731,0,0.9759,0.9809,0.9878,0.9968,1.0027,1.0046,1.0121,1.0169,1.0243,1.0311,1.0379,1.0473,1.0554,1.0626,1.071,1.0751,1.0766,1.0771,1.0769,1.078,1.0734,1.0715,1.0757,1.0757,1.0757,1.0757,1.0757,1.0757,0.9797,0.9878,0.9913,1.0023,1.0073,1.0155,1.0196,1.0252,1.0307,1.041,1.0476,1.0522,1.0593,1.0682,1.0757,1.0776,1.0806,1.0807,1.083,1.0787,1.0783,1.078,1.0762,1.0813,1.0813,1.087,1.087,1.0871]},{"header":{"parameterUnit":"m.s-1","parameterCategory":1,"la1":30.2991,"la2":30.254,"lo1":-89.0895,"lo2":-89.0444,"dy":0.0017,"dx":0.0017,"nx":28,"ny":28,"refTime":"2024-07-13T03:00:00:Z","depth":0,"parameterNumber":3,"parameterNumberName":"V-component_of_WINDS"},"data":[0,0,0,0,0,0,0,0,0,0,0,0,0,0,0,0,0,0,0,0,0,0,0,0,0,0,0,0,0,0,0,0,0,0,0,0,0,0,0,0,0,0,0,0,0,0,0,0,0,0,0,0,0,0,0,0,0,0,3.166,3.166,0,3.164,3.164,3.164,3.1586,3.1584,3.1583,3.1582,3.1562,3.1562,3.1563,0,0,0,0,0,0,0,0,0,0,0,0,0,3.1652,3.1652,3.166,3.166,3.166,3.164,3.164,3.164,3.1586,3.1584,3.1583,3.1582,3.1562,3.1562,3.1563,0,0,0,0,0,0,0,0,0,0,0,0,0,3.1646,3.1653,3.166,3.163,3.1628,3.1641,3.164,3.164,3.1586,3.1584,3.1583,3.1581,3.1562,3.1562,3.1563,3.1603,0,0,3.1566,3.1566,0,0,0,0,0,0,0,0,3.1647,3.1647,3.1635,3.1633,3.1629,3.1614,3.163,3.1628,3.1586,3.1602,3.1582,3.158,3.1581,3.158,3.158,3.1603,3.1602,3.1566,3.1566,3.1567,3.1567,0,0,0,0,0,0,0,3.1647,3.1647,3.1652,3.1635,3.1632,3.1618,3.1615,3.1629,3.1601,3.16,3.1596,3.1595,3.1579,3.1579,3.1579,3.1601,3.1566,3.1566,3.1567,3.1567,3.1656,3.1658,0,0,0,0,0,0,3.1652,3.1648,3.1653,3.1652,3.1634,3.162,3.1617,3.162,3.1601,3.1596,3.1596,3.1592,3.1579,3.1578,3.1578,3.1624,3.1567,3.1567,3.1568,3.1655,3.1657,3.1659,0,0,0,0,0,0,3.1652,3.1653,3.1654,3.1649,3.1648,3.1622,3.1627,3.1621,3.1621,3.1598,3.1593,3.1602,3.1577,3.1577,3.1598,3.1622,3.1568,3.1569,3.1652,3.1655,3.1658,3.1716,0,0,0,0,0,0,3.1652,3.1653,3.1668,3.165,3.1648,3.1674,3.1628,3.1622,3.1623,3.1618,3.1602,3.1597,3.1576,3.1597,3.1598,3.1623,3.1569,3.165,3.1654,3.1657,3.1712,3.172,3.1728,0,0,0,0,0,3.1652,3.1685,3.1669,3.167,3.1666,3.1675,3.1675,3.1649,3.1625,3.164,3.1625,3.1598,3.162,3.1599,3.1601,3.1626,3.1648,3.1653,3.1657,3.1708,3.1719,3.1728,0,0,0,0,0,0,3.1707,3.1682,3.1664,3.1692,3.1686,3.1666,3.1684,3.1661,3.1661,3.1656,3.1625,3.1622,3.1647,3.1638,3.1616,3.1664,3.163,3.1634,3.1668,3.1678,3.1686,3.1687,3.157,0,0,0,0,0,3.1722,3.1732,3.1709,3.1737,3.1735,3.171,3.1713,3.1694,3.1686,3.1683,3.167,3.1664,3.1669,3.1673,3.1677,3.1711,3.1706,3.1729,3.1737,3.1743,3.1748,3.1765,3.1775,3.1673,3.1673,3.1673,0,0,3.1754,3.1742,3.175,3.1747,3.174,3.1751,3.1708,3.1721,3.1728,3.1685,3.1704,3.1694,3.1685,3.1713,3.1724,3.1706,3.1775,3.1749,3.1754,3.1755,3.177,3.178,3.1789,3.1675,3.1675,3.1675,0,0,3.1818,3.1809,3.1831,3.1825,3.1815,3.1799,3.1805,3.1788,3.178,3.1798,3.1766,3.1775,3.1785,3.178,3.1778,3.1841,3.1816,3.1843,3.1885,3.1903,3.1911,3.1918,3.194,3.1949,3.1848,3.1848,3.1848,0,3.1858,3.1872,3.1845,3.186,3.186,3.1822,3.1844,3.184,3.1832,3.1833,3.1813,3.1825,3.1817,3.1842,3.1858,3.1858,3.1864,3.1845,3.1912,3.1919,3.1925,3.1946,3.1954,3.1851,3.1851,3.1851,3.185,0,3.1923,3.1934,3.1952,3.1946,3.1948,3.1967,3.1942,3.1948,3.1929,3.1915,3.1934,3.1923,3.1924,3.1929,3.191,3.1952,3.1941,3.1918,3.1882,3.1938,3.1957,3.1965,3.1856,3.1855,3.1854,3.1853,0,0,3.2019,3.1998,3.2005,3.2002,3.1989,3.1997,3.2014,3.2015,3.202,3.2017,3.203,3.204,3.2018,3.2017,3.1997,3.2013,3.2063,3.1987,3.1986,3.2001,3.2109,3.2127,3.2137,3.2047,3.2049,3.205,3.211,0,3.2078,3.2106,3.2082,3.2114,3.2124,3.2089,3.2104,3.2098,3.2085,3.2092,3.2078,3.2085,3.2056,3.2055,3.2069,3.2054,3.2085,3.205,3.206,3.206,3.2062,3.2147,3.2166,3.2223,3.2117,3.2118,3.2119,0,3.2151,3.2151,3.2184,3.217,3.2173,3.2186,3.2186,3.2192,3.2185,3.2175,3.2174,3.2151,3.2167,3.2134,3.2155,3.2132,3.2135,3.2129,3.2131,3.213,3.2093,3.2148,3.224,3.2249,3.2131,3.213,3.2129,0,3.2217,3.2225,3.2246,3.2245,3.2229,3.2239,3.2233,3.2224,3.2226,3.2226,3.2227,3.2229,3.223,3.2232,3.221,3.2187,3.2235,3.2199,3.2227,3.2227,3.2238,3.2237,3.2331,3.224,3.224,3.224,3.224,0,3.2285,3.2307,3.2276,3.2289,3.2312,3.2285,3.2309,3.23,3.2292,3.2303,3.2273,3.2283,3.2254,3.2262,3.2245,3.2266,3.2266,3.2259,3.2254,3.2261,3.2262,3.2262,3.2258,3.2242,3.2242,3.2241,3.2241,0,3.2363,3.2343,3.2363,3.2347,3.2344,3.2362,3.2347,3.2359,3.2345,3.2359,3.2361,3.2339,3.2346,3.2325,3.2329,3.2318,3.2348,3.2337,3.2351,3.2347,3.2376,3.2374,3.2473,3.2485,3.2387,3.2388,3.2389,0,3.2407,3.2423,3.2409,3.2414,3.241,3.2418,3.242,3.2395,3.2399,3.2393,3.2405,3.241,3.2413,3.2427,3.2412,3.2415,3.2403,3.2438,3.2404,3.2411,3.2404,3.2403,3.2405,3.2445,3.2446,3.2447,3.2448,0,3.2488,3.2478,3.2483,3.2485,3.2489,3.2489,3.2487,3.2493,3.2466,3.2472,3.2479,3.2482,3.2487,3.2492,3.2492,3.2486,3.2463,3.2459,3.2466,3.2473,3.2481,3.2477,3.237,3.2457,3.2456,3.2455,3.2455,3.2454,3.255,3.2563,3.2555,3.2562,3.2558,3.2558,3.2568,3.2556,3.2561,3.2563,3.2548,3.2559,3.2553,3.255,3.2547,3.2555,3.2539,3.2549,3.2551,3.2554,3.2559,3.248,3.2555,3.2555,3.2555,3.2554,3.2554,0,3.263,3.2624,3.263,3.2629,3.2634,3.2613,3.261,3.2616,3.2626,3.2622,3.2625,3.2635,3.264,3.2626,3.263,3.2639,3.2629,3.2641,3.264,3.2639,3.2573,3.2567,3.265,3.2649,3.2649,3.2649,3.2649,3.2649,3.2672,3.2693,3.2682,3.2701,3.2694,3.2705,3.2705,3.2705,3.2701,3.2713,3.2718,3.2708,3.27,3.2703,3.2708,3.2704,3.2706,3.2723,3.2715,3.2653,3.2644,3.2635,3.2629,3.2723,3.2723,3.278,3.2781,3.2781]}]]